Weather in Lumbini

Nepal     27°26′43″N   83°14′10″E
temp.,
°C
wind,
m/s
gust,
m/s
humid.,
%
clouds,
%
prec.,
mm/h
press.,
hPa
HPBL,
m
7 march, sun
sun723:45+17ne22270 0.0 101223
02:45+15ene12320 0.0 101123
05:45+15e12360 0.0 101123
08:45+22se34280 0.0 1014282
11:45+30se45150 0.0 10141121
14:45+32se32130 0.0 10111791
17:45+28ese23170 0.0 101030
20:45+22ne34220 0.0 101337
8 march, mon
mon823:45+21ne34240 0.0 101338
02:45+19se12280 0.0 101225
05:45+16e12330 0.0 101325
08:45+24ese34240 0.0 1017266
11:45+33ese67140 0.0 10151363
14:45+34se32140 0.0 10121800
17:45+30se23190 0.0 101025
20:45+23ne23270 0.0 101326
9 march, tue
tue923:45+22nne33280 0.0 101328
02:45+19nne01310 0.0 101225
05:45+17ene12360 0.0 101223
08:45+25e23260 0.0 1015275
11:45+33se32170 0.0 10141138
14:45+36wsw36120 0.0 10102770
17:45+33sw34140 0.0 101063
20:45+23nnw11220 0.0 101224
10 march, wed
wed1023:45+22ne34240 0.0 101229
02:45+20ene12280 0.0 101123
05:45+18w01330 0.0 101223
08:45+26e22220 0.0 1014256
11:45+34se44150 0.0 10131003
14:45+37sw45120 0.0 10092593
17:45+34sw23130 0.0 100928
20:45+25nne23190 0.0 101126
11 march, thu
thu1123:45+22e23257 0.0 101227
02:45+21nne23290 0.0 101125
05:45+19w11300 0.0 101223
08:45+26e46250 0.0 1015300
11:45+35ese44180 0.0 10131146
14:45+38wsw47100 0.0 10103363
17:45+35wsw59100 0.0 1010260
20:45+26nw23160 0.0 101225